Flag for Australia Weather past 2 weeks in Alice Springs, Northern Territory, Australia

Now
73 °F

Sunny.


Feels Like: 74 °F
Forecast: 41 / 78 °F
Wind: 8 mph from East

Location: Alice Springs Aerodrome

Current Time: Jul 30, 2014 at 5:12:34 PM

Latest Report: Jul 30, 2014 at 4:30 PM


Visibility: 10 mi

Pressure: 30.09 "Hg

Humidity: 13%

Dew point: 19 °F

Location of Alice SpringsLocation

Historic Weather in Alice Springs — Graph

°F

Alice Springs temperature yesterday

Maximum temperature yesterday: 77 °F (at 1:30 PM)
Minimum temperature yesterday: 43 °F (at 6:30 AM)
Average temperature yesterday: 61 °F

Past Weeks' High & Low Weather Summary

 TemperatureHumidityPressure
High79 °F (Jul 22, 2:00 PM)100% (Jul 16, 4:00 AM)30.36 "Hg (Jul 16, 4:00 AM)
Low36 °F (Jul 18, 7:00 AM)11% (Jul 21, 12:00 PM)29.92 "Hg (Jul 23, 2:30 PM)
Average56 °F53%30.18 "Hg
* Reported Jul 15 3:30 PM — Jul 30 4:00 PM, Alice Springs, Weather by CustomWeather, © 2014

Note: Actual official high and low records may vary slightly from our data, if they occured in-between our weather recording intervals... More about our weather records

Advertising

Alice Springs weather history for previous 24 hours

 ConditionsComfort  
Time TempWeatherWind HumidityBarometerVisibility
4:00 PM
Jul 30
75 °FPassing clouds.8 mph13%30.12 "HgN/A
3:30 PM73 °FPassing clouds.8 mph15%30.12 "HgN/A
3:00 PM75 °FPassing clouds.7 mph15%30.12 "HgN/A
2:30 PM73 °FPassing clouds.6 mph15%30.12 "HgN/A
2:00 PM73 °FPassing clouds.9 mph15%30.15 "HgN/A
1:30 PM73 °FPassing clouds.10 mph14%30.18 "HgN/A
1:00 PM73 °FSunny.9 mph14%30.18 "HgN/A
12:30 PM73 °FPassing clouds.10 mph16%30.21 "HgN/A
12:00 PM72 °FSunny.13 mph17%30.21 "Hg10 mi
11:30 AM72 °FSunny.10 mph17%30.21 "Hg10 mi
11:00 AM70 °FSunny.3 mph21%30.24 "Hg10 mi
10:30 AM68 °FSunny.2 mph24%30.24 "Hg10 mi
10:00 AM66 °FSunny.No wind28%30.24 "Hg10 mi
9:30 AM64 °FSunny.No wind32%30.24 "Hg10 mi
9:00 AM59 °FSunny.1 mph42%30.24 "Hg10 mi
8:30 AM54 °FSunny.3 mph47%30.24 "Hg10 mi
8:00 AM48 °FSunny.5 mph62%30.21 "Hg10 mi
7:30 AM45 °FSunny.5 mph66%30.21 "Hg10 mi
7:00 AM48 °FSunny.6 mph50%30.21 "Hg10 mi
6:30 AM46 °FClear.7 mph57%30.21 "Hg10 mi
6:00 AM45 °FClear.7 mph66%30.21 "Hg10 mi
5:30 AM43 °FClear.6 mph76%30.18 "HgN/A
5:00 AM45 °FClear.5 mph66%30.18 "HgN/A
4:30 AM45 °FClear.7 mph66%30.18 "HgN/A
4:00 AM46 °FClear.7 mph62%30.18 "HgN/A
3:30 AM46 °FClear.5 mph62%30.18 "HgN/A
3:00 AM48 °FClear.3 mph58%30.18 "HgN/A
2:30 AM46 °FClear.5 mph66%30.21 "HgN/A
1:30 AM48 °FClear.5 mph62%30.21 "HgN/A
1:00 AM46 °FClear.3 mph71%30.21 "HgN/A
12:30 AM52 °FClear.6 mph50%30.21 "HgN/A
11:30 PM
Jul 29
52 °FClear.2 mph50%30.21 "HgN/A
10:30 PM55 °FClear.3 mph51%30.21 "HgN/A
10:00 PM55 °FClear.5 mph44%30.21 "HgN/A
9:30 PM59 °FClear.7 mph36%30.21 "HgN/A
8:30 PM59 °FClear.6 mph39%30.21 "HgN/A
8:00 PM59 °FClear.7 mph39%30.21 "HgN/A
7:30 PM61 °FClear.6 mph36%30.18 "HgN/A
7:00 PM66 °FClear.7 mph26%30.18 "HgN/A
6:30 PM66 °FClear.7 mph28%30.15 "HgN/A
6:00 PM72 °FClear.8 mph22%30.15 "HgN/A
5:30 PM73 °FSunny.7 mph17%30.15 "HgN/A
Weather by CustomWeather, © 2014

See weather overviewHow to use our weather pages